Location: Boullarre
(49.1305°N, 3.0047°E)
Time: 04:01:17
(UTC+00:00)

ACS3 Solar Sail - Visible Passes

Search period start: 18 September 2024 00:00
Search period end: 28 September 2024 00:00
Orbit: 971 x 1035 km, 97.4° (Epoch: 17 September)

Date Brightness Start Highest point End Pass type
(mag) Time Alt. Az. Time Alt. Az. Time Alt. Az.
18 Sep 1.9 19:27:01 14° SSE 19:32:29 63° ENE 19:38:49 10° N visible
18 Sep 3.6 21:12:15 13° SW 21:16:56 27° W 21:22:18 10° NNW visible
19 Sep 3.1 18:17:10 10° ESE 18:22:02 23° ENE 18:26:53 10° N visible
19 Sep 2.0 20:00:26 18° S 20:05:22 80° WSW 20:11:50 10° NNW visible
19 Sep 4.3 21:46:44 10° WSW 21:50:23 16° W 21:54:04 10° NW visible
20 Sep 2.5 18:48:44 10° SE 18:54:31 37° ENE 19:00:17 10° N visible
20 Sep 2.7 20:33:47 18° SSW 20:38:22 48° W 20:44:34 10° NNW visible
21 Sep 2.0 19:21:50 15° SSE 19:27:06 60° ENE 19:33:22 10° N visible
21 Sep 3.5 21:07:04 14° SW 21:11:29 28° W 21:16:55 10° NNW visible
22 Sep 3.1 18:11:46 10° ESE 18:16:30 22° ENE 18:21:13 10° N visible
22 Sep 1.9 19:55:04 20° S 19:59:47 84° WSW 20:06:13 10° NNW visible
22 Sep 4.2 21:40:53 10° WSW 21:44:43 16° W 21:48:35 10° NW visible
23 Sep 2.6 18:43:04 10° SE 18:48:46 35° ENE 18:54:26 10° N visible
23 Sep 2.6 20:28:13 20° SSW 20:32:34 50° W 20:38:46 10° NNW visible
24 Sep 2.0 19:16:06 16° SE 19:21:09 57° ENE 19:27:22 10° N visible
24 Sep 3.4 21:01:20 16° SW 21:05:28 30° W 21:10:59 10° NNW visible
25 Sep 3.1 18:05:49 10° ESE 18:10:24 21° NE 18:14:57 10° N visible
25 Sep 1.9 19:49:09 21° SSE 19:53:37 88° WSW 20:00:02 10° NNW visible
25 Sep 4.1 21:34:25 10° SW 21:38:29 17° W 21:42:33 10° NW visible
26 Sep 2.6 18:36:54 10° SE 18:42:28 33° ENE 18:48:02 10° N visible
26 Sep 2.5 20:22:07 22° SSW 20:26:12 53° W 20:32:25 10° NNW visible
27 Sep 2.0 19:09:49 17° SE 19:14:38 54° ENE 19:20:47 10° N visible
27 Sep 3.3 20:55:01 18° SW 20:58:53 32° W 21:04:28 10° NNW visible
